STARLINK F (59927 NORAD) Tracking and Keplerian Element Data

This shows tracking and keplerian element data for the satellite.

Feedback or suggestion? Click here.




ElementValue
Catalog59927
NameSTARLINK F
Epoch Orbit233
Epoch Day160.16667824
Epoch Year2024
RAAN22.4755
Inclination43.0031
Eccentricity0.0001966
Argument of Perigee279.5823
Mean Anonmoly145.6537
Mean Motion15.9221994
Decay Rate-0.00910905
L11 59927U 24106F 24160.16667824 -.00910905 25546-3 -26129-2 0 9991
L22 59927 43.0031 22.4755 0001966 279.5823 145.6537 15.92219940 2339



Live tracking and technical data element details for STARLINK F (NORAD 59927). STARLINK F can be tracked NOW for your location showing map with azimuth and elevation plus other details from your city location.







IsCatalogInMostPopularTable: catalog: 59927, numindb: 7
Update: records affected: 1



GetName: 59927 STARLINK F

Hit Count: updated at: Tue, 16 Jul 2024 02:58:20 GMT